Time,TemperatureF,DewpointF,PressureIn,WindDirection,WindDirectionDegrees,WindSpeedMPH,WindSpeedGustMPH,Humidity,HourlyPrecipIn,Conditions,Clouds,dailyrainin,SoftwareType,DateUTC
2013-04-03 00:10:00,38.3,36.0,30.20,NE,42,0.0,6.0,92,0.00,,,0.00,weatherlink.com 1.10,2013-04-03 06:10:00,
2013-04-03 00:25:00,38.3,36.0,30.19,ENE,67,7.0,9.0,91,0.00,,,0.00,weatherlink.com 1.10,2013-04-03 06:25:00,
2013-04-03 00:40:00,38.4,36.0,30.19,NE,38,0.0,6.0,90,0.00,,,0.00,weatherlink.com 1.10,2013-04-03 06:40:00,
2013-04-03 00:55:00,38.4,36.0,30.18,NE,38,0.0,8.0,89,0.00,,,0.00,weatherlink.com 1.10,2013-04-03 06:55:00,
2013-04-03 01:10:00,38.4,35.0,30.18,NE,43,0.0,7.0,88,0.00,,,0.00,weatherlink.com 1.10,2013-04-03 07:10:00,
2013-04-03 01:25:00,38.3,35.0,30.19,NE,37,3.0,8.0,87,0.00,,,0.00,weatherlink.com 1.10,2013-04-03 07:25:00,
2013-04-03 01:40:00,38.4,35.0,30.19,NNE,17,2.0,5.0,86,0.00,,,0.00,weatherlink.com 1.10,2013-04-03 07:40:00,
2013-04-03 01:55:00,38.4,35.0,30.18,NNE,19,0.0,6.0,86,0.00,,,0.00,weatherlink.com 1.10,2013-04-03 07:55:00,
2013-04-03 02:10:00,38.4,34.0,30.17,NE,40,5.0,7.0,85,0.00,,,0.00,weatherlink.com 1.10,2013-04-03 08:10:00,
2013-04-03 02:25:00,38.5,34.0,30.17,North,360,0.0,4.0,84,0.00,,,0.00,weatherlink.com 1.10,2013-04-03 08:25:00,
2013-04-03 02:40:00,38.6,34.0,30.17,NE,36,0.0,8.0,83,0.00,,,0.00,weatherlink.com 1.10,2013-04-03 08:40:00,
2013-04-03 02:55:00,38.7,34.0,30.18,NE,36,0.0,10.0,83,0.00,,,0.00,weatherlink.com 1.10,2013-04-03 08:55:00,
2013-04-03 03:10:00,38.8,34.0,30.18,NE,34,0.0,7.0,82,0.00,,,0.00,weatherlink.com 1.10,2013-04-03 09:10:00,
2013-04-03 03:25:00,38.9,34.0,30.18,NE,34,0.0,8.0,81,0.00,,,0.00,weatherlink.com 1.10,2013-04-03 09:25:00,
2013-04-03 03:40:00,38.9,34.0,30.19,ENE,68,7.0,9.0,82,0.00,,,0.00,weatherlink.com 1.10,2013-04-03 09:40:00,
2013-04-03 03:56:00,38.9,34.0,30.19,ENE,57,5.0,8.0,82,0.00,,,0.00,weatherlink.com 1.10,2013-04-03 09:56:00,
2013-04-03 04:11:00,38.9,34.0,30.19,NNE,26,3.0,8.0,81,0.00,,,0.00,weatherlink.com 1.10,2013-04-03 10:11:00,
2013-04-03 04:26:00,38.9,34.0,30.20,NE,50,2.0,6.0,81,0.00,,,0.00,weatherlink.com 1.10,2013-04-03 10:26:00,
2013-04-03 04:41:00,39.0,34.0,30.20,NE,44,1.0,6.0,81,0.00,,,0.00,weatherlink.com 1.10,2013-04-03 10:41:00,
2013-04-03 04:56:00,39.0,33.0,30.20,NE,36,3.0,9.0,80,0.00,,,0.00,weatherlink.com 1.10,2013-04-03 10:56:00,
2013-04-03 05:11:00,39.0,33.0,30.22,NE,55,0.0,4.0,80,0.00,,,0.00,weatherlink.com 1.10,2013-04-03 11:11:00,
2013-04-03 05:26:00,39.0,33.0,30.22,NE,40,3.0,6.0,79,0.00,,,0.00,weatherlink.com 1.10,2013-04-03 11:26:00,
2013-04-03 05:41:00,39.1,33.0,30.22,NNE,28,0.0,5.0,79,0.00,,,0.00,weatherlink.com 1.10,2013-04-03 11:41:00,
2013-04-03 06:26:00,39.2,33.0,30.23,NE,36,0.0,4.0,79,0.00,,,0.00,weatherlink.com 1.10,2013-04-03 12:26:00,
2013-04-03 08:11:00,39.9,32.0,30.22,NNE,15,3.0,13.0,73,0.00,,,0.00,weatherlink.com 1.10,2013-04-03 14:11:00,
2013-04-03 08:26:00,39.9,32.0,30.23,NNE,27,4.0,8.0,72,0.00,,,0.00,weatherlink.com 1.10,2013-04-03 14:26:00,
2013-04-03 09:11:00,40.6,31.0,30.24,NE,54,0.0,5.0,69,0.00,,,0.00,weatherlink.com 1.10,2013-04-03 15:11:00,
2013-04-03 09:41:00,41.1,30.0,30.24,NE,41,7.0,10.0,64,0.00,,,0.00,weatherlink.com 1.10,2013-04-03 15:41:00,
2013-04-03 09:56:00,41.3,29.0,30.24,ENE,61,5.0,11.0,62,0.00,,,0.00,weatherlink.com 1.10,2013-04-03 15:56:00,
2013-04-03 10:26:00,41.9,29.0,30.23,NE,51,5.0,11.0,61,0.00,,,0.00,weatherlink.com 1.10,2013-04-03 16:26:00,
2013-04-03 10:41:00,42.2,29.0,30.24,NE,52,5.0,13.0,59,0.00,,,0.00,weatherlink.com 1.10,2013-04-03 16:41:00,
2013-04-03 10:56:00,42.4,28.0,30.24,ENE,61,4.0,11.0,57,0.00,,,0.00,weatherlink.com 1.10,2013-04-03 16:56:00,
2013-04-03 11:11:00,42.3,29.0,30.24,East,80,5.0,10.0,59,0.00,,,0.00,weatherlink.com 1.10,2013-04-03 17:11:00,
2013-04-03 11:26:00,42.1,30.0,30.24,NE,55,6.0,11.0,62,0.00,,,0.00,weatherlink.com 1.10,2013-04-03 17:26:00,
2013-04-03 11:41:00,42.2,29.0,30.23,NE,55,3.0,10.0,59,0.00,,,0.00,weatherlink.com 1.10,2013-04-03 17:41:00,
2013-04-03 11:56:00,42.6,30.0,30.23,North,360,6.0,9.0,62,0.00,,,0.00,weatherlink.com 1.10,2013-04-03 17:56:00,
2013-04-03 12:11:00,43.1,30.0,30.22,NE,43,4.0,12.0,60,0.00,,,0.00,weatherlink.com 1.10,2013-04-03 18:11:00,
2013-04-03 12:27:00,42.8,29.0,30.22,NE,37,5.0,12.0,59,0.00,,,0.00,weatherlink.com 1.10,2013-04-03 18:27:00,
2013-04-03 12:41:00,42.7,30.0,30.21,NE,38,5.0,15.0,61,0.00,,,0.00,weatherlink.com 1.10,2013-04-03 18:41:00,
2013-04-03 13:12:00,42.2,32.0,30.22,North,5,5.0,6.0,68,0.01,,,0.01,weatherlink.com 1.10,2013-04-03 19:12:00,
2013-04-03 13:26:00,42.4,32.0,30.22,North,360,4.0,11.0,67,0.01,,,0.01,weatherlink.com 1.10,2013-04-03 19:26:00,
2013-04-03 13:41:00,42.9,32.0,30.22,North,5,2.0,9.0,65,0.01,,,0.01,weatherlink.com 1.10,2013-04-03 19:41:00,
2013-04-03 13:56:00,43.3,30.0,30.22,NE,34,6.0,10.0,61,0.00,,,0.01,weatherlink.com 1.10,2013-04-03 19:56:00,
2013-04-03 14:12:00,43.9,30.0,30.22,NE,35,3.0,10.0,58,0.00,,,0.01,weatherlink.com 1.10,2013-04-03 20:12:00,
2013-04-03 14:27:00,44.2,30.0,30.21,North,355,4.0,11.0,58,0.00,,,0.01,weatherlink.com 1.10,2013-04-03 20:27:00,
2013-04-03 14:42:00,44.3,30.0,30.21,NNE,21,3.0,10.0,57,0.00,,,0.01,weatherlink.com 1.10,2013-04-03 20:42:00,
2013-04-03 14:57:00,44.4,30.0,30.20,North,5,2.0,8.0,58,0.00,,,0.01,weatherlink.com 1.10,2013-04-03 20:57:00,
2013-04-03 15:12:00,44.3,29.0,30.20,NNE,30,3.0,14.0,55,0.00,,,0.01,weatherlink.com 1.10,2013-04-03 21:12:00,
2013-04-03 15:27:00,43.5,32.0,30.21,North,5,3.0,9.0,63,0.01,,,0.02,weatherlink.com 1.10,2013-04-03 21:27:00,
2013-04-03 15:42:00,42.2,34.0,30.19,NE,53,1.0,5.0,72,0.03,,,0.04,weatherlink.com 1.10,2013-04-03 21:42:00,
2013-04-03 15:57:00,40.7,34.0,30.18,NE,56,0.0,10.0,78,0.07,,,0.08,weatherlink.com 1.10,2013-04-03 21:57:00,
2013-04-03 16:12:00,40.7,35.0,30.21,North,360,0.0,0.0,80,0.09,,,0.10,weatherlink.com 1.10,2013-04-03 22:12:00,
2013-04-03 16:27:00,40.8,36.0,30.20,North,360,1.0,2.0,82,0.08,,,0.10,weatherlink.com 1.10,2013-04-03 22:27:00,
2013-04-03 16:42:00,41.0,36.0,30.20,North,360,0.0,4.0,82,0.06,,,0.11,weatherlink.com 1.10,2013-04-03 22:42:00,
2013-04-03 16:57:00,41.3,37.0,30.20,North,360,0.0,0.0,84,0.03,,,0.12,weatherlink.com 1.10,2013-04-03 22:57:00,
2013-04-03 17:12:00,41.6,37.0,30.20,North,360,0.0,3.0,84,0.02,,,0.12,weatherlink.com 1.10,2013-04-03 23:12:00,
2013-04-03 17:27:00,41.7,37.0,30.20,NNW,348,6.0,6.0,84,0.03,,,0.13,weatherlink.com 1.10,2013-04-03 23:27:00,
2013-04-03 17:42:00,41.6,37.0,30.20,North,5,5.0,6.0,83,0.01,,,0.13,weatherlink.com 1.10,2013-04-03 23:42:00,
2013-04-03 17:57:00,41.7,37.0,30.19,North,5,0.0,5.0,83,0.01,,,0.13,weatherlink.com 1.10,2013-04-03 23:57:00,
2013-04-03 18:12:00,41.6,37.0,30.19,North,5,0.0,6.0,83,0.01,,,0.13,weatherlink.com 1.10,2013-04-04 00:12:00,
2013-04-03 18:27:00,41.6,37.0,30.19,North,349,0.0,5.0,83,0.00,,,0.13,weatherlink.com 1.10,2013-04-04 00:27:00,
2013-04-03 18:42:00,41.5,37.0,30.19,North,349,0.0,4.0,84,0.00,,,0.13,weatherlink.com 1.10,2013-04-04 00:42:00,
2013-04-03 18:57:00,41.5,37.0,30.19,North,349,0.0,4.0,84,0.00,,,0.13,weatherlink.com 1.10,2013-04-04 00:57:00,
2013-04-03 19:12:00,41.4,37.0,30.19,NNE,13,2.0,6.0,84,0.00,,,0.13,weatherlink.com 1.10,2013-04-04 01:12:00,
2013-04-03 19:27:00,41.4,37.0,30.19,NNW,330,0.0,6.0,83,0.00,,,0.13,weatherlink.com 1.10,2013-04-04 01:27:00,
2013-04-03 19:42:00,41.4,37.0,30.20,North,355,3.0,6.0,83,0.00,,,0.13,weatherlink.com 1.10,2013-04-04 01:42:00,
2013-04-03 19:57:00,41.5,37.0,30.20,NW,319,0.0,5.0,84,0.00,,,0.13,weatherlink.com 1.10,2013-04-04 01:57:00,
2013-04-03 20:12:00,41.3,37.0,30.20,NNW,344,3.0,5.0,86,0.00,,,0.13,weatherlink.com 1.10,2013-04-04 02:12:00,
2013-04-03 20:27:00,40.9,37.0,30.20,North,355,4.0,8.0,87,0.01,,,0.14,weatherlink.com 1.10,2013-04-04 02:27:00,
2013-04-03 20:42:00,40.7,37.0,30.20,North,360,0.0,7.0,87,0.01,,,0.14,weatherlink.com 1.10,2013-04-04 02:42:00,
2013-04-03 20:57:00,40.6,37.0,30.21,North,360,3.0,5.0,88,0.01,,,0.14,weatherlink.com 1.10,2013-04-04 02:57:00,
2013-04-03 21:12:00,40.5,38.0,30.20,North,360,0.0,3.0,89,0.02,,,0.15,weatherlink.com 1.10,2013-04-04 03:12:00,
2013-04-03 21:27:00,40.4,38.0,30.20,North,360,0.0,0.0,89,0.01,,,0.15,weatherlink.com 1.10,2013-04-04 03:27:00,
2013-04-03 21:42:00,40.2,38.0,30.20,North,360,0.0,1.0,90,0.01,,,0.15,weatherlink.com 1.10,2013-04-04 03:42:00,
2013-04-03 21:57:00,40.2,38.0,30.20,North,360,0.0,2.0,90,0.02,,,0.16,weatherlink.com 1.10,2013-04-04 03:57:00,
2013-04-03 22:12:00,40.1,38.0,30.20,North,360,0.0,0.0,91,0.01,,,0.16,weatherlink.com 1.10,2013-04-04 04:12:00,
2013-04-03 22:27:00,40.1,38.0,30.20,North,360,0.0,0.0,91,0.01,,,0.16,weatherlink.com 1.10,2013-04-04 04:27:00,
2013-04-03 22:42:00,40.0,38.0,30.20,North,360,0.0,0.0,91,0.01,,,0.16,weatherlink.com 1.10,2013-04-04 04:42:00,
2013-04-03 22:57:00,40.0,38.0,30.20,North,360,0.0,2.0,91,0.01,,,0.17,weatherlink.com 1.10,2013-04-04 04:57:00,
2013-04-03 23:12:00,40.0,38.0,30.20,North,360,0.0,0.0,92,0.02,,,0.01,weatherlink.com 1.10,2013-04-04 05:12:00,
2013-04-03 23:27:00,40.0,38.0,30.20,North,360,0.0,0.0,92,0.03,,,0.02,weatherlink.com 1.10,2013-04-04 05:27:00,
2013-04-03 23:43:00,40.0,38.0,30.19,North,360,0.0,3.0,92,0.04,,,0.03,weatherlink.com 1.10,2013-04-04 05:43:00,
2013-04-03 23:57:00,39.9,38.0,30.19,North,360,0.0,0.0,92,0.05,,,0.05,weatherlink.com 1.10,2013-04-04 05:57:00,